| time (UTC) | temp F | wind direction | speed MPH | gust MPH | rain 1hr in | rain 24hr in | rain mn in | humidity % | barometer mb |
| 20260506090830 | 52 | 23 | 8.0 | 13.0 | 0.00 | 0.00 | 0.00 | 77 | 1008.1 |
| 20260506090331 | 51 | 19 | 7.0 | 12.0 | 0.00 | 0.00 | 0.00 | 76 | 1008.0 |
| 20260506085831 | 51 | 356 | 6.0 | 13.0 | 0.00 | 0.00 | 0.00 | 76 | 1007.9 |
| 20260506085331 | 51 | 0 | 6.0 | 13.0 | 0.00 | 0.00 | 0.00 | 77 | 1007.7 |
| 20260506084831 | 51 | 18 | 6.0 | 12.0 | 0.00 | 0.00 | 0.00 | 77 | 1007.6 |
| 20260506084332 | 51 | 10 | 4.0 | 13.0 | 0.00 | 0.00 | 0.00 | 76 | 1007.7 |
| 20260506083831 | 51 | 356 | 6.0 | 13.0 | 0.00 | 0.00 | 0.00 | 77 | 1007.6 |
| 20260506083332 | 51 | 4 | 7.0 | 12.0 | 0.00 | 0.00 | 0.00 | 77 | 1007.7 |
| 20260506082831 | 51 | 17 | 7.0 | 11.0 | 0.00 | 0.00 | 0.00 | 77 | 1007.6 |
| 20260506082331 | 51 | 8 | 5.0 | 11.0 | 0.00 | 0.00 | 0.00 | 78 | 1007.7 |
| 20260506081832 | 51 | 310 | 8.0 | 11.0 | 0.00 | 0.00 | 0.00 | 78 | 1007.7 |
| 20260506081331 | 51 | 7 | 7.0 | 11.0 | 0.00 | 0.00 | 0.00 | 79 | 1007.6 |
| 20260506080831 | 51 | 12 | 6.0 | 11.0 | 0.00 | 0.00 | 0.00 | 79 | 1007.6 |
| 20260506080331 | 51 | 3 | 4.0 | 11.0 | 0.00 | 0.00 | 0.00 | 79 | 1007.6 |
| 20260506073331 | 50 | 356 | 4.0 | 12.0 | 0.00 | 0.00 | 0.00 | 74 | 1007.5 |
| 20260506072831 | 50 | 10 | 5.0 | 12.0 | 0.00 | 0.00 | 0.00 | 73 | 1007.5 |
| 20260506072331 | 50 | 337 | 4.0 | 10.0 | 0.00 | 0.00 | 0.00 | 74 | 1007.5 |
| 20260506071831 | 50 | 347 | 6.0 | 17.0 | 0.00 | 0.00 | 0.00 | 75 | 1007.4 |
| 20260506071332 | 50 | 66 | 7.0 | 18.0 | 0.00 | 0.00 | 0.00 | 76 | 1007.4 |
| 20260506070830 | 50 | 0 | 7.0 | 18.0 | 0.00 | 0.00 | 0.00 | 80 | 1007.5 |
| 20260506070329 | 50 | 27 | 6.0 | 12.0 | 0.00 | 0.00 | 0.00 | 82 | 1007.5 |
| 20260506062316 | 49 | 1 | 6.0 | 13.0 | 0.00 | 0.00 | 0.00 | 87 | 1007.2 |
| 20260506061815 | 49 | 349 | 6.0 | 12.0 | 0.00 | 0.00 | 0.00 | 87 | 1007.1 |
| 20260506061305 | 49 | 6 | 6.0 | 12.0 | 0.00 | 0.00 | 0.00 | 88 | 1007.2 |
| 20260506060803 | 49 | 352 | 6.0 | 11.0 | 0.00 | 0.00 | 0.00 | 88 | 1007.0 |
| 20260506060305 | 49 | 347 | 6.0 | 11.0 | 0.00 | 0.00 | 0.00 | 88 | 1007.1 |
| 20260506051302 | 49 | 355 | 6.0 | 11.0 | 0.00 | 0.00 | 0.00 | 89 | 1006.9 |
| 20260506050259 | 49 | 320 | 5.0 | 9.0 | 0.00 | 0.00 | 0.00 | 89 | 1006.8 |
| 20260506044756 | 49 | 355 | 6.0 | 11.0 | 0.00 | 0.00 | 0.00 | 89 | 1006.8 |
| 20260506044255 | 49 | 340 | 4.0 | 9.0 | 0.00 | 0.00 | 0.00 | 89 | 1006.8 |
| 20260506043752 | 49 | 308 | 3.0 | 7.0 | 0.00 | 0.00 | 0.00 | 89 | 1006.8 |
| 20260506043252 | 49 | 351 | 3.0 | 8.0 | 0.00 | 0.00 | 0.00 | 89 | 1006.8 |
| 20260506042749 | 49 | 320 | 4.0 | 8.0 | 0.00 | 0.00 | 0.00 | 88 | 1006.8 |
| 20260506042247 | 49 | 316 | 4.0 | 8.0 | 0.00 | 0.00 | 0.00 | 88 | 1006.7 |
| 20260506041746 | 49 | 324 | 3.0 | 10.0 | 0.00 | 0.00 | 0.00 | 88 | 1006.7 |
| 20260506041244 | 49 | 339 | 4.0 | 8.0 | 0.00 | 0.00 | 0.00 | 88 | 1006.8 |
| 20260506040739 | 49 | 339 | 3.0 | 7.0 | 0.00 | 0.00 | 0.00 | 88 | 1006.8 |
| 20260506040240 | 49 | 343 | 3.0 | 7.0 | 0.00 | 0.00 | 0.00 | 88 | 1006.8 |
| 20260506035737 | 49 | 336 | 3.0 | 9.0 | 0.00 | 0.00 | 0.00 | 88 | 1006.9 |
| 20260506035236 | 49 | 341 | 5.0 | 9.0 | 0.00 | 0.00 | 0.00 | 88 | 1007.0 |
| 20260506034728 | 49 | 347 | 5.0 | 9.0 | 0.00 | 0.00 | 0.00 | 88 | 1006.9 |
| 20260506034228 | 49 | 322 | 4.0 | 9.0 | 0.00 | 0.00 | 0.00 | 88 | 1007.0 |
| 20260506033724 | 49 | 23 | 3.0 | 9.0 | 0.00 | 0.00 | 0.00 | 88 | 1007.0 |
| 20260506033223 | 49 | 346 | 4.0 | 9.0 | 0.00 | 0.00 | 0.00 | 87 | 1006.9 |
| 20260506032721 | 49 | 334 | 3.0 | 7.0 | 0.00 | 0.00 | 0.00 | 87 | 1007.0 |
| 20260506032220 | 49 | 351 | 3.0 | 9.0 | 0.00 | 0.00 | 0.00 | 87 | 1007.1 |
| 20260506031719 | 49 | 16 | 4.0 | 9.0 | 0.00 | 0.00 | 0.00 | 87 | 1007.1 |
| 20260506031217 | 49 | 349 | 3.0 | 10.0 | 0.00 | 0.00 | 0.00 | 87 | 1007.1 |
| 20260506030716 | 49 | 257 | 4.0 | 10.0 | 0.00 | 0.00 | 0.00 | 87 | 1007.2 |
| 20260506030216 | 49 | 347 | 2.0 | 7.0 | 0.00 | 0.00 | 0.00 | 87 | 1007.2 |
| 20260506025712 | 49 | 12 | 3.0 | 8.0 | 0.00 | 0.00 | 0.00 | 87 | 1007.4 |
| 20260506025211 | 49 | 333 | 2.0 | 8.0 | 0.00 | 0.00 | 0.00 | 87 | 1007.4 |
| 20260506024710 | 49 | 2 | 3.0 | 8.0 | 0.00 | 0.00 | 0.00 | 87 | 1007.5 |
| 20260506024210 | 49 | 317 | 2.0 | 8.0 | 0.00 | 0.00 | 0.00 | 87 | 1007.5 |
| 20260506023707 | 49 | 339 | 2.0 | 8.0 | 0.00 | 0.00 | 0.00 | 87 | 1007.4 |
| 20260506023208 | 49 | 332 | 4.0 | 8.0 | 0.00 | 0.00 | 0.00 | 87 | 1007.5 |
| 20260506022706 | 49 | 347 | 2.0 | 6.0 | 0.00 | 0.00 | 0.00 | 87 | 1007.5 |
| 20260506022205 | 49 | 341 | 2.0 | 6.0 | 0.00 | 0.00 | 0.00 | 87 | 1007.6 |
| 20260506021705 | 49 | 299 | 1.0 | 7.0 | 0.00 | 0.00 | 0.00 | 87 | 1007.5 |
| 20260506021203 | 49 | 9 | 4.0 | 7.0 | 0.00 | 0.00 | 0.00 | 87 | 1007.6 |
| 20260506020702 | 49 | 2 | 3.0 | 7.0 | 0.00 | 0.00 | 0.00 | 87 | 1007.6 |
| 20260506020201 | 49 | 345 | 4.0 | 8.0 | 0.00 | 0.00 | 0.00 | 87 | 1007.6 |
| 20260506015702 | 49 | 339 | 4.0 | 8.0 | 0.00 | 0.00 | 0.00 | 87 | 1007.7 |
| 20260506015202 | 49 | 326 | 4.0 | 8.0 | 0.00 | 0.00 | 0.00 | 87 | 1007.7 |
| 20260506014702 | 49 | 11 | 3.0 | 9.0 | 0.00 | 0.00 | 0.00 | 87 | 1007.8 |
| 20260506014207 | 49 | 9 | 3.0 | 9.0 | 0.00 | 0.00 | 0.00 | 87 | 1007.9 |
| 20260506013702 | 49 | 358 | 4.0 | 8.0 | 0.00 | 0.00 | 0.00 | 86 | 1007.9 |
| 20260506013205 | 49 | 2 | 3.0 | 8.0 | 0.00 | 0.00 | 0.00 | 86 | 1007.9 |
| 20260506012702 | 49 | 357 | 4.0 | 8.0 | 0.00 | 0.00 | 0.00 | 86 | 1007.9 |
| 20260506012204 | 49 | 0 | 3.0 | 9.0 | 0.00 | 0.00 | 0.00 | 86 | 1007.9 |
| 20260506011702 | 49 | 22 | 3.0 | 10.0 | 0.00 | 0.00 | 0.00 | 86 | 1008.0 |
| 20260506011202 | 49 | 10 | 4.0 | 10.0 | 0.00 | 0.00 | 0.00 | 86 | 1007.9 |
| 20260506010702 | 49 | 310 | 2.0 | 8.0 | 0.00 | 0.00 | 0.00 | 85 | 1008.1 |
| 20260506010202 | 49 | 6 | 4.0 | 8.0 | 0.00 | 0.00 | 0.00 | 85 | 1008.1 |
| 20260506005702 | 49 | 340 | 3.0 | 7.0 | 0.00 | 0.00 | 0.00 | 85 | 1008.2 |
| 20260506005203 | 49 | 10 | 4.0 | 10.0 | 0.00 | 0.00 | 0.00 | 85 | 1008.2 |
| 20260506004702 | 49 | 331 | 6.0 | 10.0 | 0.00 | 0.00 | 0.00 | 85 | 1008.2 |
| 20260506004202 | 49 | 335 | 4.0 | 8.0 | 0.00 | 0.00 | 0.00 | 85 | 1008.3 |
| 20260506003702 | 49 | 358 | 4.0 | 10.0 | 0.00 | 0.00 | 0.00 | 85 | 1008.2 |
| 20260506003200 | 49 | 351 | 4.0 | 10.0 | 0.00 | 0.00 | 0.00 | 85 | 1008.3 |
| 20260506002657 | 49 | 345 | 3.0 | 10.0 | 0.00 | 0.00 | 0.00 | 84 | 1008.3 |
| 20260506002155 | 49 | 356 | 6.0 | 10.0 | 0.00 | 0.00 | 0.00 | 84 | 1008.3 |
| 20260506001653 | 49 | 353 | 5.0 | 11.0 | 0.00 | 0.00 | 0.00 | 84 | 1008.3 |
| 20260506001153 | 49 | 349 | 6.0 | 11.0 | 0.00 | 0.00 | 0.00 | 84 | 1008.3 |
| 20260506000652 | 49 | 18 | 4.0 | 11.0 | 0.00 | 0.00 | 0.00 | 84 | 1008.4 |
| 20260506000149 | 49 | 310 | 5.0 | 14.0 | 0.00 | 0.00 | 0.00 | 84 | 1008.5 |
| 20260505235650 | 49 | 2 | 8.0 | 14.0 | 0.00 | 0.00 | 0.00 | 84 | 1008.5 |
| 20260505235151 | 49 | 36 | 5.0 | 10.0 | 0.00 | 0.00 | 0.00 | 84 | 1008.5 |
| 20260505234648 | 49 | 323 | 5.0 | 11.0 | 0.00 | 0.00 | 0.00 | 84 | 1008.6 |
| 20260505234146 | 49 | 351 | 6.0 | 12.0 | 0.00 | 0.00 | 0.00 | 84 | 1008.6 |
| 20260505233646 | 49 | 353 | 6.0 | 12.0 | 0.00 | 0.00 | 0.00 | 84 | 1008.6 |
| 20260505233144 | 50 | 345 | 5.0 | 12.0 | 0.00 | 0.00 | 0.00 | 84 | 1008.6 |
| 20260505232643 | 49 | 11 | 4.0 | 12.0 | 0.00 | 0.00 | 0.00 | 84 | 1008.8 |
| 20260505232141 | 50 | 345 | 7.0 | 11.0 | 0.00 | 0.00 | 0.00 | 84 | 1008.7 |
| 20260505231638 | 50 | 331 | 4.0 | 11.0 | 0.00 | 0.00 | 0.00 | 84 | 1008.8 |
| 20260505231137 | 50 | 354 | 5.0 | 11.0 | 0.00 | 0.00 | 0.00 | 84 | 1008.8 |
| 20260505230636 | 50 | 298 | 7.0 | 10.0 | 0.00 | 0.00 | 0.00 | 84 | 1008.8 |
| 20260505230135 | 50 | 0 | 5.0 | 10.0 | 0.00 | 0.00 | 0.00 | 84 | 1008.8 |
| 20260505225634 | 50 | 6 | 4.0 | 10.0 | 0.00 | 0.00 | 0.00 | 84 | 1008.8 |
| 20260505225132 | 50 | 8 | 6.0 | 12.0 | 0.00 | 0.00 | 0.00 | 84 | 1008.7 |
| 20260505224631 | 50 | 339 | 4.0 | 10.0 | 0.00 | 0.00 | 0.00 | 84 | 1008.9 |
| 20260505224134 | 50 | 4 | 4.0 | 16.0 | 0.00 | 0.00 | 0.00 | 85 | 1008.9 |
| 20260505223630 | 50 | 13 | 8.0 | 16.0 | 0.00 | 0.00 | 0.00 | 85 | 1009.0 |
| 20260505223127 | 50 | 326 | 7.0 | 15.0 | 0.00 | 0.00 | 0.00 | 85 | 1009.0 |
| 20260505222623 | 50 | 0 | 6.0 | 11.0 | 0.00 | 0.00 | 0.00 | 85 | 1009.0 |
| 20260505222125 | 50 | 4 | 7.0 | 11.0 | 0.00 | 0.00 | 0.00 | 85 | 1009.2 |
| 20260505221621 | 50 | 339 | 5.0 | 11.0 | 0.00 | 0.00 | 0.00 | 86 | 1009.1 |
| 20260505221121 | 50 | 274 | 4.0 | 10.0 | 0.00 | 0.00 | 0.00 | 86 | 1009.2 |
| 20260505220619 | 50 | 338 | 6.0 | 11.0 | 0.00 | 0.00 | 0.00 | 86 | 1009.1 |
| 20260505220110 | 50 | 23 | 5.0 | 11.0 | 0.00 | 0.00 | 0.00 | 86 | 1009.2 |
| 20260505215610 | 50 | 3 | 4.0 | 10.0 | 0.00 | 0.00 | 0.00 | 86 | 1009.1 |
| 20260505215111 | 50 | 16 | 5.0 | 12.0 | 0.00 | 0.00 | 0.00 | 86 | 1009.2 |
| 20260505214610 | 50 | 343 | 6.0 | 12.0 | 0.00 | 0.00 | 0.00 | 86 | 1009.2 |
| 20260505214109 | 50 | 16 | 6.0 | 12.0 | 0.00 | 0.00 | 0.00 | 86 | 1009.2 |
| 20260505213609 | 50 | 335 | 6.0 | 11.0 | 0.00 | 0.00 | 0.00 | 86 | 1009.3 |
| 20260505213106 | 50 | 2 | 6.0 | 12.0 | 0.00 | 0.00 | 0.00 | 86 | 1009.3 |
| 20260505212605 | 50 | 7 | 6.0 | 13.0 | 0.00 | 0.00 | 0.00 | 86 | 1009.3 |
| 20260505212104 | 50 | 349 | 8.0 | 13.0 | 0.00 | 0.00 | 0.00 | 86 | 1009.2 |
| 20260505211604 | 50 | 340 | 7.0 | 12.0 | 0.00 | 0.00 | 0.00 | 86 | 1009.3 |
| 20260505211105 | 50 | 359 | 7.0 | 14.0 | 0.00 | 0.00 | 0.00 | 85 | 1009.3 |
| 20260505210605 | 50 | 344 | 6.0 | 14.0 | 0.00 | 0.00 | 0.00 | 85 | 1009.3 |
| 20260505210107 | 50 | 342 | 6.0 | 12.0 | 0.00 | 0.00 | 0.00 | 85 | 1009.5 |
| 20260505205603 | 50 | 319 | 7.0 | 12.0 | 0.00 | 0.00 | 0.00 | 85 | 1009.5 |
| 20260505205104 | 50 | 354 | 6.0 | 12.0 | 0.00 | 0.00 | 0.00 | 85 | 1009.5 |
| 20260505204603 | 50 | 12 | 7.0 | 13.0 | 0.00 | 0.00 | 0.00 | 85 | 1009.6 |
| 20260505204102 | 50 | 326 | 6.0 | 13.0 | 0.00 | 0.00 | 0.00 | 85 | 1009.7 |
| 20260505203603 | 50 | 335 | 6.0 | 13.0 | 0.00 | 0.00 | 0.00 | 85 | 1009.6 |
| 20260505203102 | 50 | 337 | 5.0 | 11.0 | 0.00 | 0.00 | 0.00 | 85 | 1009.6 |
| 20260505202602 | 50 | 339 | 5.0 | 10.0 | 0.00 | 0.00 | 0.00 | 85 | 1009.6 |
| 20260505201602 | 51 | 347 | 8.0 | 13.0 | 0.00 | 0.00 | 0.00 | 85 | 1009.6 |
| 20260505201102 | 51 | 344 | 7.0 | 14.0 | 0.00 | 0.00 | 0.00 | 85 | 1009.5 |
| 20260505200605 | 51 | 328 | 8.0 | 14.0 | 0.00 | 0.00 | 0.00 | 84 | 1009.4 |
| 20260505200105 | 51 | 2 | 5.0 | 11.0 | 0.00 | 0.00 | 0.00 | 84 | 1009.5 |
| 20260505195602 | 51 | 324 | 6.0 | 13.0 | 0.00 | 0.00 | 0.00 | 84 | 1009.5 |
| 20260505195102 | 51 | 6 | 8.0 | 13.0 | 0.00 | 0.00 | 0.00 | 84 | 1009.5 |
| 20260505194603 | 51 | 351 | 10.0 | 15.0 | 0.00 | 0.00 | 0.00 | 84 | 1009.4 |
| 20260505194104 | 51 | 349 | 7.0 | 15.0 | 0.00 | 0.00 | 0.00 | 84 | 1009.6 |
| 20260505193603 | 51 | 349 | 5.0 | 12.0 | 0.00 | 0.00 | 0.00 | 84 | 1009.5 |
| 20260505193104 | 51 | 357 | 6.0 | 11.0 | 0.00 | 0.00 | 0.00 | 84 | 1009.5 |
| 20260505192602 | 51 | 3 | 6.0 | 11.0 | 0.00 | 0.00 | 0.00 | 84 | 1009.4 |
| 20260505192103 | 51 | 357 | 5.0 | 12.0 | 0.00 | 0.00 | 0.00 | 84 | 1009.4 |
| 20260505191603 | 51 | 352 | 8.0 | 12.0 | 0.00 | 0.00 | 0.00 | 84 | 1009.3 |
| 20260505191102 | 51 | 326 | 6.0 | 10.0 | 0.00 | 0.00 | 0.00 | 85 | 1009.3 |
| 20260505190603 | 51 | 322 | 5.0 | 12.0 | 0.00 | 0.00 | 0.00 | 85 | 1009.2 |
| 20260505185602 | 51 | 23 | 6.0 | 12.0 | 0.00 | 0.00 | 0.00 | 85 | 1009.3 |
| 20260505185102 | 51 | 18 | 6.0 | 11.0 | 0.00 | 0.00 | 0.00 | 85 | 1009.3 |
| 20260505184604 | 51 | 349 | 6.0 | 11.0 | 0.00 | 0.00 | 0.00 | 85 | 1009.2 |
| 20260505184102 | 51 | 9 | 6.0 | 12.0 | 0.00 | 0.00 | 0.00 | 85 | 1009.2 |
| 20260505183602 | 52 | 20 | 6.0 | 12.0 | 0.00 | 0.00 | 0.00 | 84 | 1009.2 |
| 20260505183102 | 52 | 355 | 7.0 | 13.0 | 0.00 | 0.00 | 0.00 | 84 | 1009.2 |
| 20260505182602 | 52 | 350 | 7.0 | 13.0 | 0.00 | 0.00 | 0.00 | 84 | 1009.2 |
| 20260505182102 | 52 | 21 | 6.0 | 10.0 | 0.00 | 0.00 | 0.00 | 85 | 1009.1 |
| 20260505181602 | 52 | 339 | 5.0 | 12.0 | 0.00 | 0.00 | 0.00 | 85 | 1009.1 |
| 20260505181103 | 52 | 343 | 7.0 | 12.0 | 0.00 | 0.00 | 0.00 | 85 | 1009.1 |
| 20260505180603 | 52 | 342 | 7.0 | 13.0 | 0.00 | 0.00 | 0.00 | 85 | 1009.2 |
| 20260505180106 | 52 | 1 | 7.0 | 14.0 | 0.00 | 0.00 | 0.00 | 84 | 1009.1 |
| 20260505175602 | 52 | 36 | 8.0 | 14.0 | 0.00 | 0.00 | 0.00 | 84 | 1009.1 |
| 20260505175103 | 52 | 348 | 5.0 | 12.0 | 0.00 | 0.00 | 0.00 | 84 | 1009.3 |
| 20260505174602 | 52 | 6 | 8.0 | 12.0 | 0.00 | 0.01 | 0.00 | 84 | 1009.2 |
| 20260505174103 | 52 | 14 | 7.0 | 13.0 | 0.00 | 0.01 | 0.00 | 84 | 1009.3 |
| 20260505173602 | 53 | 312 | 8.0 | 13.0 | 0.00 | 0.01 | 0.00 | 84 | 1009.3 |
| 20260505173102 | 53 | 309 | 7.0 | 13.0 | 0.00 | 0.01 | 0.00 | 84 | 1009.1 |
| 20260505172602 | 53 | 15 | 8.0 | 13.0 | 0.00 | 0.01 | 0.00 | 83 | 1009.2 |
| 20260505172102 | 53 | 346 | 6.0 | 13.0 | 0.00 | 0.01 | 0.00 | 83 | 1009.2 |
| 20260505171602 | 53 | 345 | 9.0 | 13.0 | 0.00 | 0.01 | 0.00 | 83 | 1009.1 |
| 20260505171101 | 53 | 309 | 9.0 | 13.0 | 0.00 | 0.01 | 0.00 | 83 | 1009.3 |
| 20260505170603 | 53 | 14 | 5.0 | 13.0 | 0.00 | 0.01 | 0.00 | 83 | 1009.3 |
| 20260505165602 | 53 | 295 | 4.0 | 10.0 | 0.00 | 0.01 | 0.00 | 83 | 1009.3 |
| 20260505165102 | 53 | 318 | 6.0 | 10.0 | 0.00 | 0.01 | 0.00 | 83 | 1009.4 |
| 20260505164602 | 53 | 344 | 6.0 | 12.0 | 0.00 | 0.01 | 0.00 | 83 | 1009.5 |
| 20260505164103 | 53 | 17 | 7.0 | 12.0 | 0.00 | 0.01 | 0.00 | 83 | 1009.6 |
| 20260505163602 | 53 | 349 | 4.0 | 10.0 | 0.00 | 0.01 | 0.00 | 83 | 1009.5 |
| 20260505163103 | 53 | 7 | 5.0 | 11.0 | 0.00 | 0.01 | 0.00 | 83 | 1009.5 |
| 20260505162603 | 53 | 336 | 6.0 | 14.0 | 0.00 | 0.01 | 0.00 | 83 | 1009.5 |
| 20260505162102 | 53 | 328 | 7.0 | 14.0 | 0.00 | 0.01 | 0.00 | 83 | 1009.5 |
| 20260505161602 | 53 | 330 | 6.0 | 12.0 | 0.00 | 0.01 | 0.00 | 83 | 1009.4 |
| 20260505161102 | 53 | 349 | 8.0 | 11.0 | 0.00 | 0.01 | 0.00 | 83 | 1009.5 |
| 20260505160602 | 53 | 332 | 5.0 | 11.0 | 0.00 | 0.01 | 0.00 | 83 | 1009.5 |
| 20260505153059 | 54 | 20 | 5.0 | 11.0 | 0.00 | 0.01 | 0.00 | 82 | 1009.6 |
| 20260505152557 | 54 | 345 | 7.0 | 11.0 | 0.00 | 0.01 | 0.00 | 82 | 1009.6 |
| 20260505152056 | 54 | 344 | 5.0 | 12.0 | 0.00 | 0.01 | 0.00 | 81 | 1009.7 |
| 20260505151553 | 54 | 10 | 9.0 | 12.0 | 0.00 | 0.01 | 0.00 | 81 | 1009.8 |
| 20260505151052 | 54 | 345 | 3.0 | 12.0 | 0.00 | 0.01 | 0.00 | 82 | 1009.7 |
| 20260505150550 | 54 | 345 | 6.0 | 11.0 | 0.00 | 0.01 | 0.00 | 81 | 1009.7 |
| 20260505140523 | 54 | 355 | 6.0 | 11.0 | 0.00 | 0.01 | 0.00 | 81 | 1009.9 |
| 20260505124954 | 53 | 33 | 4.0 | 10.0 | 0.00 | 0.06 | 0.00 | 83 | 1010.4 |
| 20260505124453 | 53 | 41 | 4.0 | 9.0 | 0.00 | 0.06 | 0.00 | 83 | 1010.5 |
| 20260505123950 | 53 | 359 | 5.0 | 9.0 | 0.00 | 0.07 | 0.00 | 83 | 1010.5 |
| 20260505123449 | 54 | 33 | 3.0 | 9.0 | 0.00 | 0.08 | 0.00 | 83 | 1010.5 |
| 20260505122947 | 54 | 20 | 5.0 | 10.0 | 0.00 | 0.09 | 0.00 | 83 | 1010.5 |
| 20260505122446 | 54 | 328 | 4.0 | 14.0 | 0.00 | 0.09 | 0.00 | 82 | 1010.5 |
| 20260505121945 | 54 | 342 | 6.0 | 14.0 | 0.00 | 0.09 | 0.00 | 83 | 1010.5 |
| 20260505121441 | 54 | 348 | 8.0 | 13.0 | 0.00 | 0.09 | 0.00 | 83 | 1010.5 |
| 20260505120938 | 54 | 318 | 7.0 | 13.0 | 0.00 | 0.09 | 0.00 | 83 | 1010.4 |
| 20260505120436 | 54 | 341 | 5.0 | 12.0 | 0.00 | 0.09 | 0.00 | 83 | 1010.4 |
| 20260505115937 | 54 | 320 | 5.0 | 11.0 | 0.00 | 0.09 | 0.00 | 84 | 1010.4 |
| 20260505115435 | 54 | 342 | 6.0 | 14.0 | 0.00 | 0.09 | 0.00 | 83 | 1010.3 |
| 20260505114932 | 54 | 335 | 9.0 | 14.0 | 0.00 | 0.09 | 0.00 | 83 | 1010.4 |
| 20260505114432 | 53 | 347 | 6.0 | 15.0 | 0.00 | 0.09 | 0.00 | 83 | 1010.3 |
| 20260505113928 | 53 | 349 | 6.0 | 15.0 | 0.00 | 0.09 | 0.00 | 83 | 1010.3 |
| 20260505113426 | 53 | 333 | 5.0 | 11.0 | 0.00 | 0.09 | 0.00 | 84 | 1010.5 |
| 20260505112922 | 53 | 359 | 5.0 | 13.0 | 0.00 | 0.09 | 0.00 | 84 | 1010.6 |
| 20260505112420 | 53 | 344 | 8.0 | 13.0 | 0.00 | 0.09 | 0.00 | 84 | 1010.7 |
| 20260505111920 | 53 | 5 | 7.0 | 11.0 | 0.00 | 0.09 | 0.00 | 84 | 1010.7 |
| 20260505111418 | 53 | 17 | 5.0 | 11.0 | 0.00 | 0.09 | 0.00 | 84 | 1010.7 |
| 20260505110915 | 53 | 33 | 6.0 | 14.0 | 0.00 | 0.09 | 0.00 | 84 | 1010.7 |
| 20260505110414 | 53 | 10 | 6.0 | 14.0 | 0.00 | 0.09 | 0.00 | 84 | 1010.8 |
| 20260505101908 | 52 | 60 | 5.0 | 9.0 | 0.00 | 0.09 | 0.00 | 86 | 1011.0 |
| 20260505101405 | 52 | 16 | 5.0 | 9.0 | 0.00 | 0.09 | 0.00 | 87 | 1011.0 |
| 20260505100904 | 52 | 318 | 5.0 | 11.0 | 0.00 | 0.09 | 0.00 | 87 | 1011.0 |
| 20260505100405 | 52 | 327 | 6.0 | 11.0 | 0.00 | 0.09 | 0.00 | 87 | 1011.0 |
| 20260505095906 | 52 | 18 | 6.0 | 12.0 | 0.00 | 0.09 | 0.00 | 87 | 1011.1 |
| 20260505095404 | 51 | 15 | 6.0 | 12.0 | 0.00 | 0.09 | 0.00 | 87 | 1011.1 |
| 20260505094905 | 51 | 6 | 6.0 | 12.0 | 0.00 | 0.09 | 0.00 | 88 | 1011.2 |
| 20260505094403 | 51 | 29 | 6.0 | 12.0 | 0.00 | 0.09 | 0.00 | 88 | 1011.2 |
| 20260505093903 | 51 | 348 | 5.0 | 10.0 | 0.00 | 0.09 | 0.00 | 89 | 1011.1 |
| 20260505093402 | 51 | 340 | 4.0 | 12.0 | 0.00 | 0.09 | 0.00 | 89 | 1011.1 |
| 20260505092902 | 51 | 351 | 6.0 | 12.0 | 0.00 | 0.09 | 0.00 | 89 | 1011.1 |
| 20260505092405 | 50 | 331 | 7.0 | 11.0 | 0.00 | 0.09 | 0.00 | 89 | 1011.2 |
| 20260505091902 | 50 | 337 | 6.0 | 11.0 | 0.00 | 0.09 | 0.00 | 89 | 1011.2 |
| 20260505091403 | 50 | 7 | 6.0 | 10.0 | 0.00 | 0.09 | 0.00 | 89 | 1011.2 |